Kodiak, AK

12:40 AM AKDT on August 24, 2017 (GMT -0800)
Kodiak

Weather History for PADQ - October, 2012

Change the Weather History Date:

Monday, October 1, 2012

  Actual Average Record
Temperature  
Mean Temperature 40 °F 45 °F  
Max Temperature 50 °F 51 °F 61 °F (1937)
Min Temperature 29 °F 39 °F 25 °F (1972)
Degree Days  
Heating Degree Days 25 20  
Month to date heating degree days 25 20  
Since 1 July heating degree days 1255 1121  
Cooling Degree Days 0 0  
Month to date cooling degree days 0 0  
Year to date cooling degree days 0 1  
Moisture  
Dew Point 36 °F    
Average Humidity 0    
Maximum Humidity 0    
Minimum Humidity 0    
Precipitation  
Precipitation 0.01 in 0.29 in 3.52 in (2003)
Month to date precipitation 0.01 0.29  
Year to date precipitation 43.06 54.43  
Snow  
Snow 0.00 in 0.00 in - ()
Month to date snowfall 0.0 0.0  
Since 1 July snowfall T 0.0  
Since 1 September snowfall 0.0 0.0  
Snow Depth 0.00 in    
Sea Level Pressure  
Sea Level Pressure 30.26 in    
Wind  
Wind Speed 5 mph (SW)    
Max Wind Speed 15 mph    
Max Gust Speed 18 mph    
Visibility 10 miles    
Events      
T = Trace of Precipitation, MM = Missing Value Source: NWS Daily Summary

Daily Weather History Graph

Daily Weather History Graph

Search for Another Location

Airport or City:

Trip Planner

Search our weather history database for the weather conditions in past years. The results will help you decide how hot, cold, wet, or windy it might be!

Date:

Astronomy

Oct. 01, 2012 Rise Set
Actual Time 8:15 AM AKDT 7:41 PM AKDT
Civil Twilight 7:36 AM AKDT 8:20 PM AKDT
Nautical Twilight 6:51 AM AKDT 9:06 PM AKDT
Astronomical Twilight 6:03 AM AKDT 9:53 PM AKDT
Moon 7:48 PM AKDT (10/1) 10:28 AM AKDT (10/1)
Length of Visible Light 12h 43m
Length of Day
11h 26m
Full, 97% of the Moon is Illuminated
Oct 1
Full
Oct 7
Last Quarter
Oct 15
New
Oct 21
First Quarter
Oct 29
Full

Hourly Weather History & Observations

Time (AKDT) Temp. Windchill Dew Point Humidity Pressure Visibility Wind Dir Wind Speed Gust Speed Precip Events Conditions
12:53 AM 32.0 °F 27.5 °F 28.0 °F 85% 30.16 in 10.0 mi West 4.6 mph - N/A   Mostly Cloudy
1:53 AM 32.0 °F 27.5 °F 28.0 °F 85% 30.18 in 10.0 mi West 4.6 mph - N/A   Mostly Cloudy
2:53 AM 30.0 °F 26.5 °F 28.0 °F 92% 30.18 in 10.0 mi WNW 3.5 mph - N/A   Mostly Cloudy
3:53 AM 30.0 °F 23.2 °F 27.0 °F 88% 30.19 in 10.0 mi WSW 6.9 mph - N/A   Scattered Clouds
4:53 AM 30.9 °F - 28.0 °F 89% 30.19 in 10.0 mi Calm Calm - N/A   Mostly Cloudy
5:53 AM 30.9 °F 27.5 °F 28.0 °F 89% 30.21 in 10.0 mi West 3.5 mph - N/A   Mostly Cloudy
6:53 AM 32.0 °F 27.5 °F 28.9 °F 88% 30.21 in 10.0 mi West 4.6 mph - N/A   Mostly Cloudy
7:53 AM 32.0 °F 27.5 °F 28.9 °F 88% 30.22 in 10.0 mi West 4.6 mph - N/A   Mostly Cloudy
8:53 AM 33.1 °F 28.7 °F 30.0 °F 89% 30.23 in 10.0 mi West 4.6 mph - N/A   Mostly Cloudy
9:53 AM 35.6 °F 32.8 °F 30.2 °F 81% 30.23 in 10.0 mi West 3.5 mph - N/A   Mostly Cloudy
10:53 AM 41.0 °F - 34.0 °F 76% 30.25 in 10.0 mi Calm Calm - N/A   Overcast
11:53 AM 46.0 °F 42.5 °F 37.9 °F 73% 30.26 in 10.0 mi South 6.9 mph - N/A   Overcast
12:53 PM 48.0 °F - 39.0 °F 71% 30.27 in 10.0 mi Variable 3.5 mph - N/A   Overcast
1:53 PM 48.9 °F - 39.9 °F 71% 30.28 in 10.0 mi Variable 3.5 mph - N/A   Overcast
2:53 PM 48.9 °F - 41.0 °F 74% 30.29 in 10.0 mi SSW 6.9 mph - N/A   Overcast
3:53 PM 50.0 °F - 42.1 °F 74% 30.29 in 10.0 mi SW 5.8 mph - N/A   Overcast
4:53 PM 50.0 °F - 43.0 °F 77% 30.29 in 10.0 mi SSE 4.6 mph - N/A   Overcast
5:53 PM 50.0 °F - 44.1 °F 80% 30.29 in 10.0 mi SSW 3.5 mph - N/A   Overcast
6:53 PM 48.9 °F - 43.0 °F 80% 30.30 in 10.0 mi SSW 6.9 mph - N/A   Overcast
7:53 PM 48.9 °F - 42.1 °F 77% 30.30 in 10.0 mi SSW 6.9 mph - N/A   Mostly Cloudy
8:53 PM 48.0 °F - 43.0 °F 83% 30.32 in 10.0 mi Calm Calm - N/A   Overcast
9:53 PM 48.0 °F - 44.1 °F 86% 30.32 in 10.0 mi Calm Calm - N/A   Overcast
10:53 PM 48.0 °F - 44.1 °F 86% 30.32 in 10.0 mi SE 6.9 mph - 0.01 in   Overcast
11:22 PM 46.4 °F 42.9 °F 44.6 °F 93% 30.32 in 10.0 mi SE 6.9 mph - N/A   Overcast
11:53 PM 48.0 °F - 43.0 °F 83% 30.33 in 10.0 mi SSE 5.8 mph - N/A   Overcast